Погода в Елабуге

Погода в Елабуге : погода сейчас, прогноз погоды и архив. Всё, что Вы хотите узнать о погоде в Елабуге!

Поиск расширенной информации на нашем сайте:

Другие новости

Новости СМИ2

Главная страница сайта

Новости сайта

03.07.2017

Напоминаем, что на нашем специализированном сайте Метеоцентр.Азия вы можете получить высокодетализированные автоматические прогнозы погоды по пунктам России, СНГ и мира в авиационном формате (включающие направление и скорость ветра, видимость, явления погоды, количество и форму облачности, нижнюю и верхнюю границу облачности).


Погода в Елабуге - сегодня

Время (UTC), дата Ветер
(°,м/с) 
Видим.   Явления Облачность Т
(°С)
Тd
(°С)
f(%) Тe
(°С)
Pmin
(гПа)
dP
(гПа)
Po
(мм)
O2
(г/м3)
Тmin Tmax R s Состояние
почвы
09 13.01.18 280 (З) 10 км    ясно 
-18.3 -22.4 70 -21  1039.1  -0.4  770  334           
12 13.01.18 250 (З) 10 км    ясно 
-17.9 -21.7 72 -18  1038.1  -0.9  769  333           
15 13.01.18 тихо ()   10 км    ясно 
-21 -23.9 77 -21  1037.3  -1  769  337    -16.9       
18 13.01.18 250 (З) 10 км  в посл. час снег  10/0 средняя 
[Ac As]
-18 -21 77 -18  1036  -1.1  768  333           
21 13.01.18 240 (ЮЗ) 10 км  {снег}  8/0 средняя 
[Ac trans]
-16.9 -19.9 78 -17  1035.1  -0.9  767  331           
00 14.01.18 250 (З) 10 км  слаб. снег  10/0 средняя 
[Ac As]
-15.4 -18.4 78 -18  1033.8  -1.2  766  329           
03 14.01.18 280 (З) 4000 м  слаб. снег  10/0 средняя 
[Ac As]
-14.1 -17 79 -14  1032.8  -0.9  765  327  -21.7    0.4  23  равномерный
сухой снег
100% 
06 14.01.18 280 (З) 10 км  слаб. снег  10/0 средняя 
[As trans]
-12.3 -15 80 -12  1032.5  -0.2  765  324           
09 14.01.18 270 (З) 10 км  слаб. снег  10/0 средняя 
[As op]
-9.7 -13 77 -10  1032.6  0.3  766  321           
12 14.01.18 300 (СЗ) 10 км  {снег}  10/0 средняя 
[As op]
-9.9 -12.8 79 -10  1033.8  1.2  766  322           
15 14.01.18 тихо ()   10 км    10/0 средняя 
[As op]
-9.8 -12 84 -10  1035.1  1.3  767  322    -8.6  0.9     
18 14.01.18 360 (С) 10 км    10/0 средняя 
[As op]
-9.2 -11.7 82 -9  1036.2  1.1  768  321           
21 14.01.18 тихо ()   10 км    10/0 средняя 
[As op]
-9.2 -11.5 83 -9  1037  0.8  769  322           
00 15.01.18 тихо ()   10 км    10/0 средняя 
[As trans]
-12.2 -14.1 86 -12  1037.4  0.3  769  326           
03 15.01.18 тихо ()   10 км    10/0 средняя 
[As trans]
-9.9 -11.8 86 -10  1037.2  0.1  769  323  -12.7      23  равномерный
сухой снег
100% 
06 15.01.18 260 (З) 4000 м  дымка  10/0 средняя 
[As trans]
-8.1 -9.6 89 -10  1037.6  0.4  769  320  -12.7         
09 15.01.18 270 (З) 10 км    10/0 средняя 
[As trans]
-6.9 -8.4 89 -7  1037.4  0.1  769  319           
12 15.01.18 260 (З) 10 км    10/0 средняя 
[As op]
-6.7 -8.1 90 -8  1036.7  -0.7  769  318           
15 15.01.18 280 (З) 10 км    10/0 средняя 
[As trans]
-6 -7.4 90 -7  1035.8  -0.9  768  317    -6       
18 15.01.18 300 (СЗ) 10 км    10/0 средняя 
[As trans]
-6.2 -7.5 90 -8  1035.3  -0.5  768  317           
21 15.01.18 300 (СЗ) 10 км    10/0 средняя 
[As op]
-6.4 -7.8 90 -8  1035  -0.3  767  317           
00 16.01.18 290 (З) 4000 м  дымка  10/0 средняя 
[As op]
-7.1 -8.5 90 -9  1034.6  -0.4  767  318           
03 16.01.18 310 (СЗ) 10 км    10/0 средняя 
[As op]
-7.2 -8.6 90 -9  1033.6  -1  766  318  -7.2      23  равномерный
сухой снег
100% 
06 16.01.18 300 (СЗ) 10 км    10/0 средняя 
[As op]
-7.2 -8.6 90 -9  1032.9  -0.7  766  318  -7.3         
09 16.01.18 320 (СЗ) 10 км    10/0 средняя 
[As op]
-7.4 -8.9 89 -7  1032.4  -0.5  765  318           
Время (UTC), дата Ветер
(°,м/с) 
Видим.   Явления Облачность Т
(°С)
Тd
(°С)
f(%) Тe
(°С)
Pmin
(гПа)
dP
(гПа)
Po
(мм)
O2
(г/м3)
Тmin Tmax R s Состояние
почвы

Для получения пояснительной информации подведите курсор к названию столбца.

ПОГОДА в Елабуге - архив

Всё, что Вы хотите узнать о погоде в Елабуге - удобно и подробно!

Выберите нужную дату (начиная с 1 января 2015* года) и нажмите кнопку "Найти".
Будут отображены архивные сводки погоды по пункту Елабуга, начиная с указанной даты.


Отображать данные в формате CSV (для использования в таблицах Excel)


Внимание! Наш архив погоды предназначен исключительно для личного некоммерческого использования в познавательных целях. Если Вам необходимы официальные справки о состоянии погоды (для производственных, юридических, коммерческих и т.п. целей), обращайтесь в органы Росгидромета.

*Примечание: данная дата относится к архиву по метеостанциям СССР (Россия, СНГ, Балтия).
Архив по метеостанциям Зарубежной Европы и Азии (кроме Китая) хранится 10 дней, по другим регионам земного шара (Китай, Африка, Америка, Австралия, Океания) - 1 день.

Елабуга - район местоположения метеостанции


Название, широта, долгота, высота метеостанции:
Елабуга 55.7°ш. 52.1°д. 90 м над ур. моря [Российская Федерация]

Дополнительная информация

В oтличие oт бoльшинства пoгoдных сайтoв мы публикуем пoдрoбную метеoинфoрмацию в детальнoм прoфессиoнальнoм фoрмате.

Характеристики температуры и влажнoсти вoздуха измеряются на высoте 2 м в тени вдали oт зданий и деревьев.
Скoрoсть ветра измеряется на высoте 10 м (на урoвне рoста челoвека скoрoсть ветра ниже в 1.5-2 раза). Если метеoстанция нахoдится в гoрoде или в лесу, тo скoрoсть ветра занижена на 2-4 м/с пo сравнению с oткрытым местoм. Скoрoсть ветра над акватoриями крупных рек и oзёр, а также на вершинах хoлмoв на 2-5 м/с выше, чем в oбычных услoвиях.
Атмoсфернoе давление в разных тoчках местнoсти мoжет значительнo oтличаться oт давления на метеoстанции, в зависимoсти oт услoвий рельефа (при пoдъёме на 10 м давление пoнижается примернo на 1 мм рт.ст.).